星链-30584 (STARLINK-30584 )

导读

STARLINK-30584是美国SpaceX星链互联网卫星星座的一员,于2023年10月18日发射入轨。星链项目旨在为全球提供高速低延迟卫星互联网服务,该卫星承担着增强全球网络覆盖,尤其是偏远地区接入能力的任务。作为星链批量部署的卫星之一,它进一步扩充了星座规模,助力星座实现全球无缝组网的目标,也推动了低轨卫星互联网的商业化进程。

基本信息
目录编号:
58089
目录名称:
STARLINK-30584
国际标识:
2023-160Q
轨道中心:
EARTH
卫星名称:
星链-30584
卫星全名:
星链-30584 (STARLINK-30584 )
卫星状态:
在轨 (已飞行1052 天)
发射日期:
2023-10-18 UTC
国别 :
美国 (US)
星等 :
--
轨道信息
数据来源 国际轨道数据 AOE轨道数据
星历时间 2026-09-04T10:32:47+0800
7小时前
查看轨道信息
2026-09-03T22:00:00+0800
19小时前
查看轨道信息
半长轴 6861.17km 6861.109km
偏心率 0.0000645 0.0002519
轨道倾角 43.002° 43.000°
近地点辐角 269.042° 189.653°
升交点赤经 150.170° 153.125°
平近点角 91.035° 172.175°
近地点 482.59km 481.243km
远地点 483.476km 484.701km
周期 94.266分钟 94.265分钟
每日圈数 15.275854 15.276059
详细信息
固有亮度:
5
最大亮度:
0.3
卫星平台:
Starlink v2.0 mini
覆盖范围:
全球
运营商:
太空探索技术公司
运营商所在国:
美国
制造商(研发单位):
太空探索技术公司
制造商所在国:
美国
使用方式:
暂无
卫星简介
星链(Starlink)计划是由太空探索技术公司(SpaceX)提出的一个巨型低轨卫星互联网星座项目,计划在2019年至2024年间在太空搭建由约1.2万颗卫星组成的“星链”网络,其中1584颗将部署在地球上空550千米处的近地轨道,并从2020年开始工作。该卫星仍在工作。
2D轨道图
3D轨道图
轨道高度分析图
轨道倾角分析图
轨道综合分析图
查看轨道综合分析图
交会数据列表
事件ID 空间交会对象 最接近时刻(TCA) 交会距离 交会风险概率(CRP) 交会风险指数(CRI) 操作
CDM_260903-235805-808906-389521
2026-09-03T
23:58:39+0000
0.381 km
远距离
2.55462E-4 高风险 0.83
CDM_260904-105005-808906-341921
2026-09-04T
10:50:03+0000
0.424 km
远距离
1.14086E-4 高风险 0.76
CDM_260903-031305-808906-686522
2026-09-03T
03:13:59+0000
0.564 km
远距离
1.020946E-4 高风险 0.75
CDM_260903-153905-808906-256821
2026-09-03T
15:39:51+0000
0.717 km
远距离
6.101359E-5 中风险 0.71
CDM_260905-000805-763905-808921
2026-09-05T
00:08:58+0000
0.487 km
远距离
5.647378E-5 中风险 0.7
CDM_260903-090405-808906-389521
2026-09-03T
09:04:10+0000
0.781 km
远距离
3.989388E-5 中风险 0.67
CDM_260905-023005-763905-808921
2026-09-05T
02:30:12+0000
0.554 km
远距离
3.886265E-5 中风险 0.67
CDM_260905-113305-808906-652721
2026-09-05T
11:33:49+0000
0.991 km
远距离
2.157037E-5 中风险 0.62
CDM_260904-082805-808906-341921
2026-09-04T
08:28:49+0000
0.759 km
远距离
2.125184E-5 中风险 0.62
CDM_260904-094205-808906-256821
2026-09-04T
09:42:39+0000
1.054 km
极远距离
1.70588E-5 中风险 0.6